FW1030 Weather Reports


Display with metric or nautical units.
time (UTC)temp
F
wind
direction
speed
MPH
gust
MPH
rain 1hr
in
rain 24hr
in
rain mn
in
humidity
%
barometer
mb
20201001114823 80 281 0.0 0.0 0.00 0.00 0.00 87 1013.1
20201001113123 80 281 0.0 0.0 0.00 0.00 0.00 87 1013.0
20201001111646 80 286 0.0 0.0 0.00 0.00 0.00 86 1013.0
20201001110159 80 311 0.0 0.0 0.00 0.00 0.00 86 1012.9
20201001104638 80 301 0.0 0.0 0.00 0.00 0.00 85 1012.6
20201001103155 80 276 0.0 0.0 0.00 0.00 0.00 85 1012.3
20201001101654 81 275 0.0 0.0 0.00 0.00 0.00 85 1012.2
20201001100129 81 216 0.0 0.0 0.00 0.00 0.00 86 1012.2
20201001094628 80 263 0.0 0.0 0.00 0.00 0.00 86 1011.9
20201001093112 80 255 0.0 0.0 0.00 0.00 0.00 85 1011.9
20201001091631 80 279 0.0 0.0 0.00 0.00 0.00 87 1011.8
20201001090116 80 259 0.0 0.0 0.00 0.00 0.00 87 1012.1
20201001084809 80 281 0.0 0.0 0.00 0.00 0.00 87 1012.3
20201001083150 80 248 0.0 0.0 0.00 0.00 0.00 87 1012.4
20201001081705 80 272 0.0 0.0 0.00 0.00 0.00 86 1012.4
20201001080114 81 270 0.0 0.0 0.00 0.00 0.00 85 1012.4
20201001074637 81 252 0.0 0.0 0.00 0.00 0.00 85 1012.4
20201001073210 81 268 0.0 0.0 0.00 0.00 0.00 85 1012.5
20201001071625 81 52 0.0 0.0 0.00 0.00 0.00 86 1012.6
20201001070126 81 52 0.0 0.0 0.00 0.00 0.00 86 1012.7
20201001064723 81 53 0.0 0.0 0.00 0.00 0.00 86 1012.5
20201001063125 81 292 0.0 0.0 0.00 0.00 0.00 86 1012.5
20201001061642 81 277 0.0 0.0 0.00 0.00 0.00 84 1012.6
20201001060132 81 261 0.0 0.0 0.00 0.00 0.00 83 1013.0
20201001054622 82 252 0.0 0.0 0.00 0.00 0.00 82 1013.4
20201001053139 83 330 0.0 0.0 0.00 0.00 0.00 81 1013.6
20201001051557 83 344 0.0 0.0 0.00 0.00 0.00 82 1013.6
20201001050120 83 351 0.0 0.0 0.00 0.00 0.00 82 1013.8
20201001044652 83 313 0.0 0.0 0.00 0.00 0.00 82 1013.9
20201001043126 83 329 0.0 0.0 0.00 0.00 0.00 82 1014.0
20201001041552 83 343 0.0 0.0 0.00 0.00 0.00 82 1014.1
20201001040135 82 317 0.0 0.0 0.00 0.00 0.00 83 1014.2
20201001034627 82 18 0.0 0.0 0.00 0.00 0.00 86 1013.8
20201001033130 82 319 0.0 0.0 0.00 0.00 0.00 87 1013.9
20201001031622 82 286 0.0 0.0 0.00 0.00 0.00 86 1014.0
20201001030109 82 272 0.0 0.0 0.00 0.00 0.00 86 1014.0
20201001024600 82 267 0.0 0.0 0.00 0.00 0.00 85 1014.2
20201001023150 82 288 0.0 0.0 0.00 0.00 0.00 85 1014.1
20201001021556 82 319 0.0 0.0 0.00 0.00 0.00 84 1013.9
20201001020109 83 300 0.0 0.0 0.00 0.00 0.00 83 1014.1
20201001014540 83 271 0.0 0.0 0.00 0.00 0.00 84 1014.2
20201001013101 83 281 0.0 0.0 0.00 0.00 0.00 83 1014.2
20201001011550 84 287 0.0 0.0 0.00 0.00 0.00 78 1014.2
20201001010052 83 302 0.0 0.0 0.00 0.00 0.00 76 1014.0
20201001004551 83 300 0.0 0.0 0.00 0.00 0.00 76 1013.7
20201001003144 83 318 0.0 0.0 0.00 0.00 0.00 78 1013.5
20201001001601 83 283 0.0 0.0 0.00 0.00 0.00 78 1013.4
20201001000054 83 269 0.0 0.0 0.00 0.00 0.00 80 1013.1
20200930234600 83 290 0.0 0.0 0.00 0.00 0.00 80 1012.7
20200930233119 83 309 0.0 0.0 0.00 0.00 0.00 81 1012.5
20200930231545 83 295 0.0 0.0 0.00 0.00 0.00 80 1012.5
20200930230103 84 308 0.0 0.0 0.00 0.00 0.00 78 1012.2
20200930224538 84 298 0.0 0.0 0.00 0.00 0.00 75 1012.2
20200930223121 85 309 0.0 0.0 0.00 0.00 0.00 75 1012.1
20200930221550 85 282 0.0 0.0 0.00 0.00 0.00 75 1011.9
20200930220044 85 300 0.0 0.0 0.00 0.00 0.00 75 1011.8
20200930214549 85 338 0.0 0.0 0.00 0.00 0.00 75 1011.9
20200930213047 85 348 0.0 0.0 0.00 0.00 0.00 73 1011.8
20200930211617 86 5 0.0 0.0 0.00 0.00 0.00 71 1011.7
20200930210114 86 347 0.0 0.0 0.00 0.00 0.00 71 1011.9
20200930204610 86 321 0.0 0.0 0.00 0.00 0.00 72 1011.8
20200930203107 87 57 0.0 0.0 0.00 0.00 0.00 71 1011.7
20200930201631 87 343 0.0 0.0 0.00 0.00 0.00 69 1011.7
20200930200107 87 34 0.0 0.0 0.00 0.00 0.00 67 1011.7
20200930194612 87 42 0.0 0.0 0.00 0.00 0.00 67 1011.7
20200930193108 87 350 0.0 0.0 0.00 0.00 0.00 68 1011.8
20200930191621 87 355 0.0 0.0 0.00 0.00 0.00 66 1011.9
20200930190027 87 9 0.0 0.0 0.00 0.00 0.00 68 1012.0
20200930184623 87 349 0.0 0.0 0.00 0.00 0.00 69 1012.1
20200930183027 87 345 0.0 0.0 0.00 0.00 0.00 68 1012.3
20200930181603 87 9 0.0 0.0 0.00 0.00 0.00 69 1012.5
20200930180038 88 351 0.0 0.0 0.00 0.00 0.00 67 1012.8
20200930174529 87 18 0.0 0.0 0.00 0.00 0.00 67 1012.8
20200930173044 86 325 0.0 0.0 0.00 0.00 0.00 71 1013.0
20200930171526 87 37 0.0 0.0 0.00 0.00 0.00 69 1013.1
20200930170023 87 30 0.0 0.0 0.00 0.00 0.00 70 1013.2
20200930164535 87 30 0.0 0.0 0.00 0.00 0.00 70 1013.3
20200930163059 87 314 0.0 0.0 0.00 0.00 0.00 70 1013.4
20200930161517 87 18 0.0 0.0 0.00 0.00 0.00 70 1013.5
20200930160025 87 42 0.0 0.0 0.00 0.00 0.00 71 1013.5
20200930153107 86 45 0.0 0.0 0.00 0.00 0.00 73 1013.8
20200930151514 86 5 0.0 0.0 0.00 0.00 0.00 74 1013.7
20200930150031 86 58 0.0 0.0 0.00 0.00 0.00 73 1013.7
20200930144538 86 65 0.0 0.0 0.00 0.00 0.00 72 1013.7
20200930143011 85 13 0.0 0.0 0.00 0.00 0.00 74 1013.8
20200930141549 85 19 0.0 0.0 0.00 0.00 0.00 76 1013.8
20200930140025 85 18 0.0 0.0 0.00 0.00 0.00 75 1013.7
20200930134518 85 92 0.0 0.0 0.00 0.00 0.00 75 1013.9
20200930133020 84 30 0.0 0.0 0.00 0.00 0.00 77 1013.9
20200930131518 84 55 0.0 0.0 0.00 0.00 0.00 77 1013.8
20200930130008 84 51 0.0 0.0 0.00 0.00 0.00 76 1013.7
20200930124658 84 15 0.0 0.0 0.00 0.00 0.00 77 1013.5
20200930121707 83 360 0.0 0.0 0.00 0.00 0.00 79 1013.4
20200930120202 83 57 0.0 0.0 0.00 0.00 0.00 80 1013.2